Voltar ao catálogo

STARLINK-5986

AtivoComunicaçõesVLEO
NORAD 56452·PAYLOAD·🇺🇸 United States

Lançado May 10, 2023 de Vandenberg Space Force Base

Loading…

Próximas Passagens (próximas 24 horas)

TLE

AtualizadoSource: CelesTrak SupGP

Época: Sep 15, 2026, 02:09 UTC

1 56452C 23064E   26258.09006944 -.00010270  00000+0 -86050-3 0  2583
2 56452  70.0025  27.0569 0003060 274.1105  55.7555 14.98343139    14

Acompanhe STARLINK-5986 em tempo real com AllMySat

Download on the App Store